Weather reports worldwide

Advertisment
Stonyhurst, United Kingdom (99060): temperature & dewpoint: 09.08.2018 19:00:00 - 15.08.2018 19:00:00 (BST)Stonyhurst, United Kingdom (99060): precipitation: 09.08.2018 19:00:00 - 15.08.2018 19:00:00 (BST)
Date & Time tt [°C] td [°C] rr [mm]
15.08.2018 19:00:00 - - -
15.08.2018 18:00:00 19,3 16,0 0,0
15.08.2018 17:00:00 19,1 16,5 0,2
15.08.2018 16:00:00 18,7 16,6 0,0
15.08.2018 15:00:00 18,1 17,0 0,0
15.08.2018 14:00:00 17,5 17,1 1,4
15.08.2018 13:00:00 17,6 17,2 1,2
15.08.2018 12:00:00 17,4 16,1 0,0
15.08.2018 11:00:00 17,9 15,6 0,0
15.08.2018 10:00:00 17,1 15,3 0,0
15.08.2018 09:00:00 16,2 15,0 0,0
15.08.2018 08:00:00 16,4 15,1 0,0
15.08.2018 07:00:00 16,2 14,8 0,0
15.08.2018 06:00:00 16,0 14,7 0,0
15.08.2018 05:00:00 15,8 14,4 0,0
15.08.2018 04:00:00 15,8 14,4 0,0
15.08.2018 03:00:00 16,0 14,3 0,0
15.08.2018 02:00:00 16,3 14,5 0,0
15.08.2018 01:00:00 16,7 14,7 0,0
15.08.2018 00:00:00 17,1 15,1 0,0
14.08.2018 23:00:00 17,2 15,1 0,0
14.08.2018 22:00:00 17,4 14,7 0,0
14.08.2018 21:00:00 17,5 14,7 0,0
14.08.2018 20:00:00 17,5 15,1 0,0
14.08.2018 19:00:00 17,0 15,1 0,0
14.08.2018 18:00:00 18,6 14,9 0,0
14.08.2018 17:00:00 18,6 15,2 0,0
14.08.2018 16:00:00 16,4 15,4 0,2
14.08.2018 15:00:00 17,9 16,3 0,0
14.08.2018 14:00:00 16,1 15,6 0,2
14.08.2018 13:00:00 16,4 15,2 0,0
14.08.2018 12:00:00 16,7 15,1 0,0
14.08.2018 11:00:00 16,4 14,5 0,0
14.08.2018 10:00:00 16,1 15,2 0,0
14.08.2018 09:00:00 15,3 15,1 0,2
14.08.2018 08:00:00 14,8 14,6 0,0
14.08.2018 07:00:00 14,0 13,7 0,0
14.08.2018 06:00:00 13,7 13,3 0,0
14.08.2018 05:00:00 14,0 13,7 0,0
14.08.2018 04:00:00 13,9 13,7 0,0
14.08.2018 03:00:00 13,5 13,2 0,0
14.08.2018 02:00:00 12,7 12,3 0,0
14.08.2018 01:00:00 12,5 11,8 0,0
14.08.2018 00:00:00 13,3 12,1 0,0
13.08.2018 23:00:00 13,1 12,0 0,0
13.08.2018 22:00:00 14,5 12,5 0,0
13.08.2018 21:00:00 15,1 12,5 0,0
13.08.2018 20:00:00 16,3 12,6 0,0
13.08.2018 19:00:00 17,3 13,1 0,0
13.08.2018 18:00:00 17,3 14,4 0,0
13.08.2018 17:00:00 17,5 14,8 0,0
13.08.2018 16:00:00 17,7 15,7 0,0
13.08.2018 15:00:00 18,1 16,2 0,0
13.08.2018 14:00:00 18,8 16,8 0,0
13.08.2018 13:00:00 20,0 17,5 0,0
13.08.2018 12:00:00 18,6 17,0 0,0
13.08.2018 11:00:00 17,4 17,1 0,0
13.08.2018 10:00:00 16,8 16,7 0,0
13.08.2018 09:00:00 16,0 15,9 0,0
13.08.2018 08:00:00 15,6 15,6 0,0
13.08.2018 07:00:00 15,5 15,4 0,2
13.08.2018 06:00:00 15,3 15,2 0,0
13.08.2018 05:00:00 15,2 15,1 0,0
13.08.2018 04:00:00 15,3 15,2 0,0
13.08.2018 03:00:00 15,4 15,3 0,0
13.08.2018 02:00:00 15,6 15,5 0,0
13.08.2018 01:00:00 15,8 15,7 0,0
13.08.2018 00:00:00 16,1 16,0 0,0
12.08.2018 23:00:00 15,8 15,6 0,0
12.08.2018 22:00:00 16,3 16,0 0,6
12.08.2018 21:00:00 16,7 16,2 7,8
12.08.2018 20:00:00 17,9 15,9 0,0
12.08.2018 19:00:00 19,1 16,0 0,0
12.08.2018 18:00:00 19,4 16,2 0,0
12.08.2018 17:00:00 19,6 16,5 0,0
12.08.2018 16:00:00 19,3 16,2 0,0
12.08.2018 15:00:00 19,1 16,3 0,0
12.08.2018 14:00:00 19,0 16,4 0,0
12.08.2018 13:00:00 19,3 17,0 0,0
12.08.2018 12:00:00 18,3 16,6 0,0
12.08.2018 11:00:00 17,9 16,6 0,0
12.08.2018 10:00:00 18,2 17,0 0,0
12.08.2018 09:00:00 17,0 16,4 0,0
12.08.2018 08:00:00 16,5 15,8 0,0
12.08.2018 07:00:00 16,2 15,5 0,4
12.08.2018 06:00:00 16,0 15,3 0,2
12.08.2018 05:00:00 15,9 15,2 1,6
12.08.2018 04:00:00 15,9 15,3 0,4
12.08.2018 03:00:00 16,0 15,3 0,0
12.08.2018 02:00:00 16,0 15,3 0,4
12.08.2018 01:00:00 15,9 15,4 0,6
12.08.2018 00:00:00 15,9 15,4 0,4
11.08.2018 23:00:00 15,7 15,1 1,6
11.08.2018 22:00:00 15,0 14,5 2,0
11.08.2018 21:00:00 14,9 14,3 3,0
11.08.2018 20:00:00 15,3 13,4 0,0
11.08.2018 19:00:00 17,7 11,3 0,0
11.08.2018 18:00:00 18,9 10,7 0,0
11.08.2018 17:00:00 19,6 8,6 0,0
11.08.2018 16:00:00 19,8 9,0 0,0
11.08.2018 15:00:00 19,8 8,4 0,0
11.08.2018 14:00:00 19,7 7,4 0,0
11.08.2018 13:00:00 19,4 7,8 0,0
11.08.2018 12:00:00 18,2 8,4 0,0
11.08.2018 11:00:00 16,9 8,1 0,0
11.08.2018 10:00:00 16,4 11,1 0,0
11.08.2018 09:00:00 14,4 10,9 0,0
11.08.2018 08:00:00 11,4 10,1 0,0
11.08.2018 07:00:00 9,3 8,9 0,0
11.08.2018 06:00:00 7,6 6,7 0,0
11.08.2018 05:00:00 9,4 8,2 0,0
11.08.2018 04:00:00 8,9 7,7 0,0
11.08.2018 03:00:00 10,8 9,0 0,0
11.08.2018 02:00:00 8,7 7,1 0,0
11.08.2018 01:00:00 10,7 8,1 0,0
11.08.2018 00:00:00 11,6 8,5 0,0
10.08.2018 23:00:00 11,9 8,4 0,0
10.08.2018 22:00:00 11,9 7,7 0,0
10.08.2018 21:00:00 13,1 9,3 0,0
10.08.2018 20:00:00 13,7 8,9 0,0
10.08.2018 19:00:00 14,1 8,0 0,0
10.08.2018 18:00:00 15,5 7,4 0,0
10.08.2018 17:00:00 14,4 7,6 0,0
10.08.2018 16:00:00 15,8 7,7 0,0
10.08.2018 15:00:00 15,1 6,7 0,0
10.08.2018 14:00:00 14,9 9,3 0,0
10.08.2018 13:00:00 13,9 8,1 0,0
10.08.2018 12:00:00 13,8 7,4 0,0
10.08.2018 11:00:00 14,1 11,0 0,0
10.08.2018 10:00:00 11,4 10,0 0,2
10.08.2018 09:00:00 11,3 10,4 0,6
10.08.2018 08:00:00 10,8 10,0 0,0
10.08.2018 07:00:00 10,4 9,8 3,6
10.08.2018 06:00:00 10,7 10,3 1,0
10.08.2018 05:00:00 10,8 10,4 3,8
10.08.2018 04:00:00 10,9 10,3 10,4
10.08.2018 03:00:00 11,1 10,0 3,6
10.08.2018 02:00:00 12,0 8,9 0,0
10.08.2018 01:00:00 10,7 8,9 0,0
10.08.2018 00:00:00 9,7 7,2 0,0
09.08.2018 23:00:00 11,6 8,2 0,0
09.08.2018 22:00:00 12,1 7,7 0,0
09.08.2018 21:00:00 13,0 6,6 0,0
09.08.2018 20:00:00 14,9 6,0 0,0
09.08.2018 19:00:00 16,2 5,7 0,0

tt = temperature
td = dewpoint
rr = precipitation

Next stations